Regional Weather Roundup
Issued by NWS

Home | Current Version | Previous Version | Text Only | Print | Product List | Glossary Off
Versions: 1 2 3 4 5 6 7 8 9 10 11 12 13 14 15 16 17 18 19 20 21 22 23 24 25 26 27 28 29 30 31 32 33 34 35 36 37 38 39 40 41 42 43 44 45 46 47 48 49 50

000
ASUS43 KBIS 282210
RWRND

NORTH DAKOTA REGIONAL WEATHER ROUNDUP
NATIONAL WEATHER SERVICE BISMARCK ND
500 PM CDT TUE JUL 28 2015

NOTE: "FAIR" INDICATES FEW OR NO CLOUDS BELOW 12,000 FEET WITH NO
SIGNIFICANT WEATHER AND/OR OBSTRUCTIONS TO VISIBILITY.


NDZ001>003-009>011-017-282300-
NORTHWEST NORTH DAKOTA

CITY           SKY/WX    TMP DP  RH WIND       PRES   REMARKS
WILLISTON      LGT RAIN  59  54  83 W35G49    29.63R
MINOT          LGT RAIN  66  49  54 SW35G52   29.51F
MINOT AFB      CLOUDY    65  53  67 W37G49    29.47F
$$

NDZ018>021-031>035-040>046-282300-
SOUTHWEST NORTH DAKOTA

CITY           SKY/WX    TMP DP  RH WIND       PRES   REMARKS
BISMARCK       PTSUNNY   70  47  43 W29G52    29.78R
DICKINSON      CLOUDY    66  46  48 W46G66    29.82R
GARRISON         N/A     64  50  60 W29G44    29.65R
HETTINGER ARPT CLOUDY    68  45  43 W38G55    29.93R
$$

NDZ004>008-012>016-024-026-027-054-282300-
NORTHEAST NORTH DAKOTA

CITY           SKY/WX    TMP DP  RH WIND       PRES   REMARKS
GRAND FORKS    PTSUNNY   75  54  47 SW20G29   29.63S
GRND FRKS AFB  CLOUDY    74  55  50 SW18G30   29.64R
DEVILS LAKE    CLOUDY    72  52  49 W25G39    29.58S
$$

NDZ022-023-025-028>030-036>039-047>053-282300-
SOUTHEAST NORTH DAKOTA

CITY           SKY/WX    TMP DP  RH WIND       PRES   REMARKS
FARGO          MOSUNNY   80  53  39 SW25G33   29.73R
JAMESTOWN      PTSUNNY   74  51  44 W29G43    29.72R
$$



USA.gov is the U.S. government's official web portal to all federal, state and local government web resources and services.